HuskySat-1 (99934 NORAD) Tracking and Keplerian Element Data
This shows tracking and keplerian element data for the satellite.
Feedback or suggestion? Click here.
Element | Value |
Catalog | 99934 |
Name | HuskySat-1 |
Epoch Orbit | 1 |
Epoch Day | 31.87746807 |
Epoch Year | 2020 |
RAAN | 307.6644 |
Inclination | 51.5569 |
Eccentricity | 0.0013532 |
Argument of Perigee | 287.5589 |
Mean Anonmoly | 72.3913 |
Mean Motion | 15.32433103 |
Decay Rate | 0 |
L1 | 1 99934U 1001D 20031.87746807 .00000000 00000-0 00000-0 0 13 |
L2 | 2 99934 51.5569 307.6644 0013532 287.5589 72.3913 15.32433103 16 |
Live tracking and technical data element details for HuskySat-1 (NORAD 99934). HuskySat-1 can be tracked NOW for your location showing map with azimuth and elevation plus other details from your city location.
Track the satellite on the map from your city or location and see movement details for azimuth, elevation, latitude, longitude, range, height, and movement on the map or in text.
IsCatalogInMostPopularTable: catalog: 99934, numindb: 890
Update: records affected: 1
GetName: 99934 HuskySat-1
Hit Count: updated at: Wed, 10 Aug 2022 16:35:19 GMT